Weather Roundup
Issued by NWS Springfield, MO

Home | Current Version | Previous Version | Text Only | Print | Product List | Glossary On
Versions: 1 2 3 4 5 6 7 8 9 10 11 12 13 14 15 16 17 18 19 20 21 22 23 24 25 26 27 28 29 30 31 32 33 34 35 36 37 38 39 40 41 42 43 44 45 46 47 48 49 50
000
NZUS99 KSGF 030859
HRRSGF

HOURLY WEATHER
NATIONAL WEATHER SERVICE SPRINGFIELD MO
400 AM CDT WED JUN 03 2015

......SGF CWA......

CITY           SKY/WX    TMP DP  RH WIND       PRES   REMARKS
SPRINGFIELD    CLOUDY    62  59  90 S12       29.99S
JOPLIN         CLEAR     67  64  90 SE8       29.96S
WEST PLAINS    CLOUDY    56  53  90 CALM      30.05S
ROLLA          PTCLDY    55  54  96 S7        30.01S
OSAGE BEACH    MOCLDY    57  54  88 S6        30.01S

......SURROUNDING SGF CWA......

CITY           SKY/WX    TMP DP  RH WIND       PRES   REMARKS
CHANUTE        CLEAR     68  67  96 SE8       29.92F
PARSONS        CLEAR     69  67  93 SE5       29.93F
COFFEYVILLE    CLEAR     68  66  93 SE8       29.92S
EMPORIA        CLEAR     68  65  90 S10       29.89F
SILOAM SPRINGS PTCLDY    64  57  77 SE3       29.99S
HARRISON AR    CLOUDY    61  61 100 SE9       30.02S FOG
NEAR YELLVILLE CLOUDY    61  57  88 CALM      30.01F

......KANSAS AND MISSOURI......

CITY           SKY/WX    TMP DP  RH WIND       PRES   REMARKS
KANSAS CTY INT LGT RAIN  64  61  90 SE10      29.92F
DOWNTOWN KC    CLOUDY    67  58  72 SE6       29.92F
COLUMBIA       CLOUDY    57  55  93 SE7       30.01F
SEDALIA        CLOUDY    62  57  83 SE10      29.99F
ST JOSEPH      PTCLDY    64  59  83 S9        29.90F
ST LOUIS       PTCLDY    60  54  80 S3        30.04R
SPIRIT OF STL  CLOUDY    57  56  96 CALM      30.02S
KIRKSVILLE     PTCLDY    57  56  96 S7        30.00F
WICHITA        PTCLDY    71  65  81 S14       29.86F
TOPEKA         PTCLDY    67  64  90 SE7       29.89F
OLATHE         PTCLDY    65  60  84 S10       29.92F

......TENNESSEE......

CITY           SKY/WX    TMP DP  RH WIND       PRES   REMARKS
MEMPHIS        CLEAR     64  60  87 E6        30.00S
NASHVILLE      MOCLDY    60  57  89 NE5       30.02S

......ARKANSAS.......

CITY           SKY/WX    TMP DP  RH WIND       PRES   REMARKS
FAYETTEVILLE   CLEAR     61  61 100 CALM      29.99S
FT SMITH       CLOUDY    69  65  86 E7        29.96S
LITTLE ROCK    MOCLDY    66  59  78 E3        30.00F

......OKLAHOMA.......

CITY           SKY/WX    TMP DP  RH WIND       PRES   REMARKS
TULSA          CLEAR     72  66  81 SE8       29.91R
PONCA CITY     CLEAR     72  65  78 S12       29.88S
MCALESTER      CLEAR     70  64  81 SE5       29.94S
OKLAHOMA CITY  CLEAR     68  64  87 S10       29.90S

......IOWA............

CITY           SKY/WX    TMP DP  RH WIND       PRES   REMARKS
DES MOINES     MOCLDY    61  55  81 S8        29.94F
QUAD CITIES    CLEAR     54  49  83 E6        30.01F

......ILLINOIS........

CITY           SKY/WX    TMP DP  RH WIND       PRES   REMARKS
QUINCY         CLEAR     57  55  93 SW3       30.02S FOG
CHICAGO        MOCLDY    52  44  74 SE3       30.07S




USA.gov is the U.S. government's official web portal to all federal, state and local government web resources and services.